Showing default

FLYING LAPTOP, 42831

Orbit data source: Space-Track

FLYING LAPTOP, 42831 is a payload satellite owned by IRS Stuttgart (DE) in SSO that was launched on Fri, 14 Jul 2017 UTC via a SOYUZ-2-1A launch vehicle from the Tyuratam Missile And Space Complex (TTMTR). Payload-class satellites include a variety of spacecraft equipped with specific instruments for various scientific and technological missions. These include communications satellites like Starlink; space stations such as the ISS; scientific satellites like the Hubble; Earth observation satellites from companies like Planet Labs, Umbra, and HawkEye 360; GPS; miniature CubeSats for education and research; and military/defense satellites.

Loading next visibility...
Identifier
42831, 2017-042G
Orbit
SSO
Country
Flag of DEDE / GER
Related business
Manufacturer
IRS Stuttgart
Mission
Operational Amateur Technology
Bus & Motor
FLP, Unknown motor
Mass
120 kg wet, 120 kg dry
Launch date (UTC)
2017-07-14 (8 years ago)
Launch vehicle
SOYUZ-2-1A
Launch site
Tyuratam Missile And Space Complex (TTMTR)
Object type
Payload
Rocket body
Debris
Shape & HBR
Box + 2 Pan, 1.1 m
Radar Cross Section
0.788 m², Medium (>0.1 m² and < 1m²)

Expand to show TLE details & history
Last TLE update: 5 hours ago

TLE from 5 hours ago
0 FLYING LAPTOP
1 42831U 17042G   25312.84161975  .00004687  00000-0  38492-3 0  9990
2 42831  97.4185 113.0408 0012331 158.5443 201.6301 14.99583064453410
Epoch: 2025-11-08T20:11Z
TLE epoch observation values (Epoch: 2025-11-08T20:11:55.946Z)
Latitude
0.00005°
Longitude
121.79224°
Altitude
579.211 km
Speed
7.567 km/s
True Right ascension
07h 32m 09s
True Declination
0° 00' 00"
Sunlit
Object was in daylight at epoch
Visualization orbit readout
Latitude
Unknown
Longitude
Unknown
Altitude
Unknown
Speed
Unknown
Apparent Right ascension
Unknown
Apparent Declination
Unknown
Sunlit
N/A
Visualization observer readout
Local Sidereal Time
21:40:47
Azimuth
Unknown
Elevation
Unknown
Doppler factor
Unknown
Orbital elements
Apogee altitude
573.739 km
Perigee altitude
556.615 km
Semi-major axis
6,943.314 km
Eccentricity
0.00123
Inclination
97.4185°
RAAN
113.0408°
Arg. of periapsis
158.5443°
True anomaly
201.57809°
Mean anomaly
201.6301°
Eccentric anomaly
201.60409°
Mean motion
3.7514 °/min
Orbital period
95.96 mins
BSTAR
0.00038492
Loading maneuver chart data...
Computing Atmospheric mass density...
Loading historical data...
Loading historical data...
Loading historical data...
Loading historical data...
Loading historical data...
Loading historical data...
Loading historical data...

Documentation

Showing up to 5 results
|